Regional Weather Roundup
Issued by NWS

Home | Current Version | Previous Version | Text Only | Print | Product List | Glossary Off
Versions: 1 2 3 4 5 6 7 8 9 10 11 12 13 14 15 16 17 18 19 20 21 22 23 24 25 26 27 28 29 30 31 32 33 34 35 36 37 38 39 40 41 42 43 44 45 46 47 48 49 50

000
ASUS43 KDMX 271807
RWRIA

WEATHER ROUNDUP FOR IOWA
NATIONAL WEATHER SERVICE DES MOINES IA
1200 PM CST THU NOV 27 2014

NOTE: "FAIR" INDICATES FEW OR NO CLOUDS BELOW 12,000 FEET WITH NO
SIGNIFICANT WEATHER AND/OR OBSTRUCTIONS TO VISIBILITY.

* - THESE STATIONS ARE NOT NWS STATIONS...THUS NOT UNDER NWS
QUALITY CONTROL.  THEY ALSO DO NOT REPORT WEATHER SUCH
AS PRECIPITATION OR FOG.

IAZ001>003-012>014-020>022-031>034-043>046-271900-
   NORTHWEST IOWA

CITY           SKY/WX    TMP DP  RH WIND       PRES   REMARKS
CARROLL *      SUNNY      7  -4  61 NW3       30.51F
CHEROKEE *     MOSUNNY    6  -3  66 E3        30.49F
DENISON *      CLOUDY    10  -6  48 CALM      30.48F
LE MARS *      CLOUDY     7  -2  66 SE6       30.49F WCI  -3
ORANGE CITY *  PTSUNNY    5  -4  66 CALM      30.45F
SHELDON *      SUNNY      5  -6  61 S7        30.45F WCI  -7
SIOUX CITY     CLOUDY    12  -2  53 SE8       30.50F WCI   0
6HR MIN TEMP:   7; 6HR MAX TEMP:  12;

SPENCER        SUNNY      2  -4  76 CALM      30.48F
                                      6HR PCP: TRACE;

STORM LAKE *   MOSUNNY    3  -6  66 CALM      30.47F
$$

IAZ055>058-069>071-079>083-090>094-271900-
   SOUTHWEST IOWA

CITY           SKY/WX    TMP DP  RH WIND       PRES   REMARKS
ATLANTIC *     CLOUDY    10  -2  56 CALM      30.50F
AUDUBON *      PTSUNNY    9  -4  56 CALM      30.49F
CLARINDA *     CLOUDY    18   7  62 NW5       30.53F WCI  11
COUNCIL BLFS * CLOUDY    16   0  48 E3        30.48F
CRESTON *      CLOUDY    12   3  67 VRB3      30.49F
HARLAN  *      CLOUDY    10  -4  52 CALM      30.54F
LAMONI         CLOUDY    19  10  68 NW8       30.50F WCI   9
6HR MIN TEMP:  12; 6HR MAX TEMP:  19;

RED OAK *      CLOUDY    16   5  62 CALM      30.51F
SHENANDOAH *   CLOUDY    19   7  58 NE6       30.52F WCI  11
$$

IAZ047>049-059>061-072>074-084-271900-
   CENTRAL IOWA

CITY           SKY/WX    TMP DP  RH WIND       PRES   REMARKS
AMES           SUNNY      4  -5  66 W7        30.53F WCI  -8
6HR MIN TEMP:  -2; 6HR MAX TEMP:   5;

ANKENY *       SUNNY      7  -2  66 NW6       30.54F WCI  -3
CHARITON *     SUNNY     14   3  62 NW8       30.51F WCI   3
DES MOINES     CLOUDY    10  -2  58 NW9       30.54F WCI  -3
6HR MIN TEMP:   4; 6HR MAX TEMP:  10;

GRINNELL*      SUNNY      7   0  72 NW8       30.49F WCI  -6
KNOXVILLE *    SUNNY     10  -2  56 NW8       30.51F WCI  -1
MARSHALLTOWN   SUNNY      5  -2  72 W8        30.50F WCI  -8
6HR MIN TEMP:  -1; 6HR MAX TEMP:   5;

PELLA *        SUNNY     11   1  64 NW8       30.53F WCI   0
PERRY *          N/A      7   0  72 W6        30.53F WCI  -3
$$

IAZ004>006-015-016-023>025-035-036-271900-
   NORTH CENTRAL IOWA

CITY           SKY/WX    TMP DP  RH WIND       PRES   REMARKS
ALGONA *       SUNNY     -2  -8  78 N7        30.50F WCI -16
CLARION *      SUNNY     -2  -9  71 NW7       30.50F WCI -16
ESTHERVILLE    SUNNY     -1  -6  79 W3        30.48F
6HR MIN TEMP: -13; 6HR MAX TEMP:   0;

FORT DODGE *   SUNNY      1  -6  71 NW5       30.51F WCI  -8
MASON CITY     SUNNY      2  -5  72 N10       30.47F WCI -14
6HR MIN TEMP:  -9; 6HR MAX TEMP:   2;

FOREST CITY *  SUNNY      1  -4  78 N6        30.46F WCI -10
IOWA FALLS *     N/A      5  -2  72 W8        30.50S WCI  -8
$$

IAZ007>011-017>019-026>030-037>042-050>054-066-271900-
   NORTHEAST IOWA

CITY           SKY/WX    TMP DP  RH WIND       PRES   REMARKS
CEDAR RAPIDS   SUNNY     14   7  73 NW14      30.45F WCI  -1
6HR MIN TEMP:   9; 6HR MAX TEMP:  18; 6HR PCP: TRACE;

CHARLES CITY * SUNNY      3  -4  72 NW9       30.47F WCI -11
CLINTON *      SUNNY     21  12  68 NW14      30.43F WCI   8
DECORAH *      SUNNY      9  -4  56 N10       30.42F WCI  -6
DUBUQUE        SUNNY     18  10  71 N12       30.39F WCI   5
6HR MIN TEMP:  16; 6HR MAX TEMP:  21;

MONTICELLO *   SUNNY     19   5  53 NW13G20   30.43S WCI   7
OELWEIN *      SUNNY      9   0  66 NW13      30.45F WCI  -7
WATERLOO       SUNNY      7  -2  66 NW8       30.48F WCI  -6
6HR MIN TEMP:   2; 6HR MAX TEMP:   7;

$$

IAZ064-065-067-068-078-271900-
   EAST CENTRAL IOWA

CITY           SKY/WX    TMP DP  RH WIND       PRES   REMARKS
DAVENPORT      SUNNY     18  10  71 NW15      30.42F WCI   4
6HR MIN TEMP:  17; 6HR MAX TEMP:  25; 6HR PCP: TRACE;

IOWA CITY      SUNNY     16   5  62 NW13      30.49F WCI   2
6HR MIN TEMP:  12; 6HR MAX TEMP:  19;

MT. PLEASANT * SUNNY     14   6  69 W10       30.49F WCI   1
MUSCATINE *    SUNNY     18   9  68 NW14      30.49S WCI   4
QUAD CITIES    SUNNY     20  10  65 NW15      30.43F WCI   6
6HR MIN TEMP:  20; 6HR MAX TEMP:  26; 6HR PCP: TRACE;

$$

IAZ062-063-075>077-085>089-095>099-271900-
   SOUTHEAST IOWA

CITY           SKY/WX    TMP DP  RH WIND       PRES   REMARKS
BURLINGTON     SUNNY     18  10  71 NW13G18   30.47F WCI   5
6HR MIN TEMP:  17; 6HR MAX TEMP:  26;

FAIRFIELD *    SUNNY     10   1  67 NW12      30.50S WCI  -4
FORT MADISON * SUNNY     19  12  73 NW8       30.49S WCI   9
KEOKUK *       PTSUNNY   23  14  68 NW13G18   30.48F WCI  11
OSKALOOSA *      N/A     10   2  72 NW12      30.51F WCI  -5
CENTERVILLE *  SUNNY     19  10  68 W10       30.51S WCI   8
OTTUMWA        SUNNY     11   2  67 NW10      30.51F WCI  -3
6HR MIN TEMP:   9; 6HR MAX TEMP:  17;

WASHINGTON *   SUNNY     10   5  79 W15       30.49F WCI  -6
$$

ABBREVIATIONS USED IN REMARKS
   TC - TEMPERATURES IN CELSIUS
  WCI - WIND CHILL INDEX
   HX - HEAT INDEX
  VSB - VISIBILITY
$$




USA.gov is the U.S. government's official web portal to all federal, state and local government web resources and services.